#timestamp,LO_Frequency,Hit,StdDev 
1639029615.4,286046998.6,N
1639029635.2,286046998.1,N
1639029655.1,286046999.0,N
1639029656.0,286046999.0,N
1639029675.8,286047000.8,N
1639029695.7,286046998.6,N
1639029715.5,286046999.2,N
1639029735.3,286046996.9,N
1639029755.2,286046999.1,N
1639029775.0,286046999.0,N
1639029775.9,286046999.0,N
1639029795.7,286046998.6,N
1639029815.6,286046998.7,N
1639029835.4,286046998.1,N
1639029855.3,286047000.9,N
1639029875.1,286046999.6,N
1639029876.0,286046999.6,N
1639029895.8,286046999.4,N
1639029915.7,286046997.9,N
1639029935.5,286046996.8,N
1639029955.3,286046999.6,N
1639029975.2,286046997.7,N
1639029995.0,286046996.8,N
1639029995.9,286046996.8,N
1639030015.8,286046997.2,N
1639030035.6,286046996.9,N
1639030055.5,286046999.6,N
1639030075.3,286046999.5,N
1639030095.1,286047001.1,N
1639030115.9,286046999.2,N
1639030135.7,286046999.4,N
1639030155.6,286046998.5,N
1639030175.4,286046998.5,N
1639030195.2,286047000.8,N
1639030215.1,286046998.4,N
1639030216.0,286046998.4,N
1639030235.8,286046999.0,N
1639030255.7,286046999.1,N
1639030275.5,286046998.6,N
1639030295.3,286046997.0,N
1639030315.2,286046997.4,N
1639030335.0,286046996.7,N
1639030335.9,286046996.7,N
1639030355.7,286046999.6,N
1639030375.6,286046996.9,N
1639030395.4,286046996.5,N
1639030415.3,286046999.2,N
1639030435.1,286046999.2,N
1639030436.0,286046999.2,N
1639030455.8,286046999.5,N
1639030475.7,286046999.3,N
1639030495.5,286046998.3,N
1639030515.3,286046998.3,N
1639030535.2,286047001.1,N
1639030555.0,286047000.9,N
1639030555.9,286047000.9,N
1639030575.8,286047000.7,N
1639030595.6,286047000.6,N
1639030615.4,286046998.2,N
1639030635.3,286046998.4,N
1639030655.1,286046999.2,N
1639030675.9,286046999.6,N
1639030695.7,286046999.3,N
1639030715.5,286046998.7,N
1639030735.4,286046999.2,N
1639030755.2,286046999.2,N
1639030775.0,286046999.4,N
1639030776.0,286046999.4,N
1639030795.8,286047000.9,N
1639030815.6,286046998.4,N
1639030835.5,286046999.4,N
1639030855.3,286046999.0,N
1639030875.1,286046999.1,N
1639030895.9,286046999.4,N
1639030915.7,286046997.7,N
1639030935.6,286046996.1,Y
1639030955.4,286046997.9,P
1639030975.2,286046996.4,P
1639030995.1,286046993.9,P
1639030996.0,286046993.9,Y
1639031015.8,286046999.6,P
1639031035.6,286046999.3,N
1639031055.5,286047000.3,N
1639031075.3,286047000.0,N
1639031095.2,286047000.7,N
1639031115.9,286047002.7,N
1639031135.7,286047001.4,N
1639031155.6,286047001.7,N
1639031175.4,286047000.5,N
1639031195.2,286046998.4,N
1639031215.1,286047001.1,N
1639031216.0,286047001.1,N
1639031235.8,286047001.0,N
1639031255.7,286047000.4,N
1639031275.5,286047000.2,N
1639031295.3,286047000.6,N
1639031315.2,286046999.9,N
1639031335.0,286046999.8,N
1639031335.9,286046999.8,N
1639031355.8,286047002.6,N
1639031375.6,286046999.9,N
1639031395.4,286047002.1,N
1639031415.3,286046999.9,N
1639031435.1,286046996.6,N
1639031455.8,286046997.0,N
1639031475.7,286046998.6,N
1639031495.5,286046997.3,N
1639031515.4,286047000.9,N
1639031535.2,286047000.8,N
1639031555.0,286047000.9,N
1639031555.9,286047000.9,N
1639031575.8,286046999.9,N
1639031595.6,286046998.2,N
1639031615.5,286047001.1,N
1639031635.3,286047001.2,N
1639031655.1,286047001.2,N
1639031675.9,286047000.6,N
1639031695.7,286047000.0,N
1639031715.6,286046999.9,N
1639031735.4,286047002.3,N
1639031755.2,286047002.8,N
1639031775.1,286047002.1,N
1639031776.0,286047002.1,N
1639031795.8,286047002.3,N
1639031815.6,286047002.2,N
1639031835.5,286047002.5,N
1639031855.3,286046998.6,N
1639031875.2,286046998.1,N
1639031895.9,286047000.4,N
1639031915.7,286047002.1,N
1639031935.6,286047004.4,N
1639031955.4,286047002.5,N
1639031975.2,286047002.8,N
1639031995.1,286047002.3,N
1639031996.0,286047002.3,N
1639032015.8,286046998.6,N
1639032035.7,286046999.6,N
1639032055.5,286046998.8,N
1639032075.3,286047001.0,N
1639032095.2,286047000.1,N
1639032115.0,286047000.2,N
1639032115.9,286047000.2,N
1639032135.7,286047000.4,N
1639032155.6,286047000.3,N
1639032175.4,286046999.8,N
1639032195.3,286046999.9,N
1639032215.1,286047002.5,N
1639032216.0,286047002.5,N
1639032235.8,286047000.1,N
1639032255.7,286047000.1,N
1639032275.5,286047002.3,N
1639032295.4,286047002.5,N
1639032315.2,286047004.4,N
1639032335.0,286047004.3,N
1639032335.9,286047004.3,N
1639032355.8,286047004.1,N
1639032375.6,286047002.0,N
1639032395.4,286046999.9,N
1639032415.3,286047000.0,N
1639032435.1,286047000.1,N
1639032455.9,286046999.9,N
1639032475.7,286046999.9,N
1639032495.5,286046999.8,N
1639032515.4,286047002.4,N
1639032535.2,286046999.7,N
1639032555.0,286047000.6,N
1639032555.9,286047000.6,N
1639032575.8,286047000.4,N
1639032595.6,286047001.0,N
1639032615.5,286047002.8,N
1639032635.3,286047000.0,N
1639032655.1,286047001.9,N
1639032675.9,286047004.3,N
1639032695.7,286047003.3,N
1639032715.5,286047004.3,N
1639032735.4,286047003.4,N
1639032755.2,286047003.8,N
1639032775.1,286047004.4,N
1639032776.0,286047004.4,N
1639032795.8,286047001.6,N
1639032815.6,286047003.2,N
1639032835.5,286047003.9,N
1639032855.3,286047005.9,Y
1639032875.1,286047001.5,P
1639032895.9,286047002.1,P
1639032915.7,286047002.1,P
1639032935.6,286047000.9,Y
1639032955.4,286046997.0,P
1639032975.2,286046999.6,N
1639032995.1,286046999.6,N
1639032996.0,286046999.6,N
1639033015.8,286046997.3,N
1639033035.7,286046997.9,N
1639033055.5,286046997.8,N
1639033075.3,286046997.3,N
1639033095.2,286046997.7,N
1639033115.0,286046997.3,N
1639033115.9,286046997.3,N
1639033135.8,286046999.2,N
1639033155.6,286046999.0,N
1639033175.4,286046999.0,N
1639033195.3,286046998.6,N
